Wind_Speed
6 7 8 8 8 7 7 6 6 5 4 4 3 3 3 4 5 6 6 7 8 8 8 8 8 8 7 7 6 6 5 4 4 4 4 4 5 6 7 8 8 8 9
7 8 9 10 9 8 7 6 5 4 3 2 2 2 3 4 5 6 7 7 8 8 8 8 8 8 8 7 6 5 5 4 4 4 4 4 5 6 7 7 8 8 9
9 10 11 11 11 10 8 7 6 4 3 1 1 2 3 4 5 6 7 8 8 8 9 9 9 8 8 7 6 5 4 3 3 3 3 3 4 5 6 7 7 7 8
11 12 13 13 12 11 9 8 6 5 3 2 0 1 3 4 5 6 7 8 9 9 9 9 9 8 8 7 6 5 4 3 2 2 2 2 3 4 5 6 6 7 7
11 13 15 14 13 12 10 9 7 5 4 2 1 2 3 4 5 7 8 9 9 9 9 9 9 8 8 7 6 5 4 3 2 1 1 1 2 4 5 5 6 6 6
11 13 15 16 15 13 11 9 7 6 4 3 2 3 4 5 6 7 9 9 9 9 9 9 9 8 7 6 6 5 4 3 2 1 1 1 2 3 4 5 5 6 6
11 13 14 15 16 15 13 10 8 7 5 4 3 3 4 5 6 7 9 9 9 9 9 9 8 7 7 6 6 5 4 3 2 2 2 2 3 3 4 4 5 5 5
11 14 15 16 16 15 13 12 10 8 7 5 5 4 5 5 6 8 9 9 9 9 8 8 8 7 7 6 6 5 4 4 3 3 3 3 4 4 4 4 4 5 5
13 15 15 15 15 15 14 13 11 9 8 6 6 5 5 6 7 8 9 9 9 8 8 8 8 7 6 6 6 5 5 4 4 3 4 4 5 5 6 6 5 6 6
14 15 15 15 15 15 15 14 12 10 9 7 6 6 6 6 7 8 9 9 9 8 8 7 6 6 6 6 5 5 5 5 5 4 5 5 6 6 7 7 7 7 7
13 14 15 15 15 15 15 14 13 11 9 8 8 7 7 7 7 8 9 8 8 7 7 7 5 5 5 5 5 5 5 5 5 5 5 5 6 7 8 9 9 8 7
13 14 16 16 16 16 15 14 13 11 10 9 8 7 7 7 8 8 8 7 7 7 6 6 5 4 4 4 4 5 5 5 5 6 6 6 7 8 9 9 10 9 9
12 15 17 17 16 16 15 15 14 12 11 9 8 8 8 8 8 7 7 6 6 6 6 6 5 4 4 3 4 4 4 5 5 6 6 6 6 8 8 9 10 10 10
12 15 17 17 16 16 15 15 14 13 11 10 9 8 8 8 6 6 5 5 5 5 5 5 4 4 3 3 3 4 4 4 5 6 6 6 7 7 9 10 10 10 10
11 14 16 17 17 16 16 16 15 13 12 10 10 9 8 7 5 5 4 4 4 4 4 4 4 3 3 3 3 3 3 4 5 5 5 6 7 7 8 10 11 11 10
10 13 15 16 17 16 16 16 15 14 13 11 10 9 8 6 5 4 4 4 3 3 3 3 3 2 1 1 2 3 3 4 5 5 5 5 6 7 7 9 11 11 11
8 12 15 16 16 15 16 16 15 15 13 12 10 9 7 6 5 4 3 3 2 2 2 2 1 1 1 1 1 1 2 3 4 4 5 5 5 6 7 8 9 11 11
9 11 14 15 16 15 15 15 15 14 13 12 10 8 7 6 5 4 3 2 2 1 1 1 1 1 1 1 1 1 1 2 3 3 4 4 5 6 6 7 8 10 10
10 11 13 14 15 14 15 16 15 14 13 12 10 8 8 7 6 5 4 3 2 1 1 1 2 2 2 2 2 2 1 1 1 2 2 3 4 5 6 7 8 9 10
10 12 13 14 15 15 15 15 15 15 13 12 11 10 9 8 7 6 5 4 3 2 1 2 2 3 3 3 3 2 2 2 1 0 1 2 3 3 4 5 7 7 8
8 12 15 15 15 16 16 16 16 15 13 13 12 11 10 9 8 7 6 5 4 3 2 2 2 3 3 3 3 3 3 3 2 1 1 1 2 2 3 3 4 5 7
7 10 13 15 16 16 16 16 16 15 14 14 13 13 11 10 9 8 7 6 5 4 3 2 2 3 3 3 3 3 3 4 3 3 2 1 1 1 1 2 3 4 5
8 9 14 15 16 15 16 17 16 15 15 15 15 13 12 11 10 9 8 7 6 5 4 3 2 2 2 3 3 3 3 3 3 3 2 2 1 0 1 2 3 3 4
8 9 12 14 15 14 14 15 16 14 14 15 15 14 13 12 11 10 9 8 7 6 5 4 3 2 2 2 2 2 2 1 1 1 1 2 2 2 2 2 3 4 4
7 10 11 14 15 14 13 15 16 15 15 15 15 15 14 13 12 12 11 10 9 8 7 6 5 4 3 3 2 1 1 1 1 1 2 2 2 3 3 3 3 4 5
5 8 11 14 15 15 14 16 16 15 15 15 15 15 15 14 14 13 12 11 10 9 9 8 7 6 6 5 5 4 4 4 4 4 4 4 4 4 5 5 5 6 7
Wind_Direction
225 214 215 209 198 190 177 163 148 131 114 103 79 58 31 10 359 354 352 350 347 347 350 354 357 359 1 6 12 19 27 35 50 59 83 103 112 116 122 123 123 123 118
229 219 217 217 208 200 189 178 164 145 127 103 74 58 20 356 348 344 343 342 340 341 343 346 349 353 355 357 3 11 18 23 44 56 81 103 116 117 126 127 128 128 123
234 228 221 222 214 207 198 190 178 164 153 134 80 26 0 347 340 340 339 337 335 335 338 339 342 345 348 352 357 2 8 14 37 58 79 99 117 125 131 131 131 131 127
240 226 220 217 212 208 202 194 183 176 173 171 208 341 340 336 335 336 336 336 333 331 332 333 336 339 341 346 350 353 357 354 13 49 68 93 128 143 142 136 134 133 130
238 223 218 215 212 208 204 198 189 191 193 198 242 297 317 323 325 330 334 335 332 330 329 330 330 332 333 336 338 340 343 338 337 357 63 105 149 164 155 147 140 136 132
233 220 216 216 213 207 201 198 195 198 205 219 248 285 305 313 319 325 330 331 328 328 328 328 327 327 328 328 328 326 324 319 313 278 240 180 178 181 173 164 152 144 140
234 223 220 218 212 205 202 201 198 201 213 229 252 278 296 307 316 321 324 325 324 326 327 327 326 325 325 324 322 320 313 309 297 269 253 237 215 199 189 180 168 161 155
231 221 220 214 209 206 204 203 203 206 215 229 248 268 285 299 311 316 316 318 319 321 323 323 324 323 322 319 315 311 304 295 291 269 259 248 218 210 206 197 192 184 176
229 219 213 209 208 207 206 204 208 211 219 231 244 261 277 291 302 309 311 310 312 314 316 319 322 321 319 312 307 303 296 284 275 268 256 244 226 222 217 214 210 204 195
222 214 213 208 208 209 207 206 211 212 220 231 240 255 270 284 295 304 307 307 308 310 314 319 321 320 315 306 301 296 290 276 265 264 252 240 227 224 225 220 215 211 207
222 215 212 208 209 212 211 209 212 216 223 232 241 253 266 279 292 299 303 305 304 307 312 317 319 315 311 304 299 293 284 274 263 257 251 249 232 226 223 221 217 214 215
224 215 211 210 211 213 214 216 214 217 224 233 246 256 266 278 288 293 298 301 303 307 311 314 317 314 305 298 299 295 283 271 260 252 250 250 237 225 222 220 220 219 219
219 212 210 209 211 211 213 217 215 216 220 232 247 256 263 272 281 287 292 296 299 304 310 317 318 311 306 294 289 288 279 266 255 248 245 239 230 221 220 217 218 219 219
213 208 204 203 205 209 212 215 215 216 219 233 245 253 261 268 275 281 286 292 299 303 307 312 313 305 299 291 280 274 267 255 248 245 241 236 227 221 222 220 218 221 220
204 198 199 201 205 209 213 215 216 219 225 234 243 249 256 260 268 279 286 295 303 306 309 309 306 301 291 276 269 267 263 251 243 240 236 229 228 228 224 221 219 221 223
197 198 199 197 204 209 215 217 218 220 224 229 237 242 246 252 259 271 280 293 302 308 317 323 321 319 312 281 261 261 261 249 237 235 236 233 231 228 225 220 219 223 226
200 199 200 200 204 208 212 215 216 216 220 227 227 231 237 243 248 256 271 287 296 304 324 342 341 352 357 338 295 268 253 246 236 237 237 236 231 226 222 222 223 225 228
211 207 205 205 206 209 212 214 212 213 218 218 219 223 228 230 231 239 248 257 264 283 354 31 45 57 53 33 19 360 261 228 236 243 249 243 234 230 227 228 228 225 228
218 216 209 205 204 207 209 209 207 207 207 208 211 217 221 223 227 227 227 221 211 169 80 68 69 73 69 58 54 49 55 153 215 237 249 240 228 227 230 233 230 228 231
223 215 213 206 202 202 204 207 206 203 205 207 209 213 214 216 217 215 213 204 190 162 127 94 86 81 81 80 73 64 63 75 105 162 217 217 216 222 231 235 233 234 237
224 217 214 207 205 207 206 207 207 206 206 207 208 209 209 210 209 208 202 191 181 170 156 128 109 97 90 82 80 76 78 82 85 89 131 170 193 212 225 226 226 234 239
214 211 209 208 208 206 204 204 205 208 208 208 205 206 208 210 207 204 197 191 185 178 173 156 138 113 102 94 84 78 85 84 83 80 88 104 150 208 227 232 233 239 245
218 214 211 205 208 205 202 203 205 208 208 206 204 205 207 208 205 202 197 194 193 187 183 177 166 150 128 108 93 84 80 79 75 70 65 59 40 310 276 265 254 252 254
218 206 204 204 203 203 202 203 205 207 208 207 206 207 207 208 208 208 204 203 206 205 206 209 208 194 175 152 119 95 84 65 45 29 11 1 343 330 311 285 275 266 266
211 208 205 202 202 204 207 205 207 212 212 211 210 212 211 212 214 214 211 212 216 218 221 224 224 219 215 219 225 241 270 285 297 303 305 313 311 305 297 291 285 278 276
217 210 206 205 206 205 207 206 212 215 217 217 217 217 216 216 217 218 218 220 224 227 229 230 231 231 237 246 254 263 274 281 282 281 282 286 289 288 285 284 283 281 279
Height
5872 5873 5875 5876 5877 5878 5879 5879 5880 5881 5883 5884 5885 5885 5886 5886 5886 5886 5886 5886 5886 5886 5886 5886 5885 5885 5885 5885 5884 5884 5885 5885 5885 5884 5884 5885 5885 5886 5886 5887 5887 5888 5889
5871 5872 5874 5875 5876 5877 5878 5879 5880 5881 5882 5883 5884 5885 5885 5886 5886 5886 5886 5886 5886 5886 5886 5885 5885 5885 5885 5885 5884 5884 5885 5885 5885 5885 5885 5885 5886 5886 5887 5888 5889 5889 5890
5870 5871 5872 5874 5875 5876 5877 5878 5879 5880 5881 5882 5883 5884 5884 5885 5885 5885 5885 5885 5885 5885 5885 5885 5885 5885 5885 5885 5885 5885 5885 5885 5885 5885 5886 5886 5887 5887 5888 5889 5889 5890 5891
5868 5869 5871 5872 5873 5875 5876 5877 5878 5879 5880 5881 5882 5883 5883 5884 5884 5884 5884 5884 5884 5884 5884 5884 5885 5884 5885 5885 5885 5885 5885 5885 5885 5886 5886 5887 5887 5888 5889 5889 5890 5891 5891
5865 5867 5869 5870 5872 5873 5874 5876 5877 5878 5879 5880 5881 5882 5882 5883 5883 5883 5883 5883 5883 5884 5884 5884 5884 5884 5884 5884 5885 5885 5885 5885 5885 5886 5887 5887 5888 5888 5889 5890 5890 5891 5892
5863 5864 5867 5869 5870 5871 5873 5875 5876 5877 5879 5880 5880 5881 5881 5882 5882 5882 5882 5882 5882 5883 5883 5883 5883 5883 5883 5883 5884 5884 5884 5885 5885 5886 5887 5887 5888 5889 5889 5890 5891 5891 5892
5861 5862 5865 5867 5868 5870 5871 5873 5875 5876 5878 5879 5880 5880 5880 5881 5881 5881 5881 5881 5881 5882 5882 5882 5882 5882 5882 5882 5883 5883 5884 5884 5885 5885 5886 5887 5888 5889 5889 5890 5891 5892 5893
5858 5860 5862 5864 5866 5868 5870 5872 5873 5875 5876 5878 5879 5879 5880 5880 5880 5880 5880 5880 5880 5880 5881 5881 5881 5881 5881 5881 5882 5882 5883 5883 5884 5885 5885 5886 5887 5888 5889 5890 5891 5892 5893
5856 5857 5859 5862 5864 5866 5868 5870 5872 5874 5875 5877 5878 5878 5879 5879 5879 5879 5879 5879 5879 5879 5880 5880 5880 5880 5880 5880 5880 5881 5881 5882 5883 5884 5884 5885 5886 5887 5888 5890 5891 5892 5892
5853 5855 5858 5860 5862 5864 5866 5869 5871 5873 5874 5876 5876 5877 5878 5878 5878 5878 5878 5878 5878 5878 5879 5879 5879 5879 5879 5879 5879 5879 5880 5881 5881 5882 5883 5883 5885 5886 5887 5889 5890 5891 5892
5851 5854 5856 5858 5861 5863 5865 5867 5869 5871 5873 5874 5875 5876 5877 5877 5877 5877 5877 5877 5877 5877 5878 5878 5878 5878 5878 5878 5878 5878 5878 5879 5880 5881 5881 5882 5883 5884 5886 5887 5889 5890 5891
5849 5851 5853 5856 5858 5861 5863 5865 5867 5869 5871 5873 5874 5875 5876 5876 5876 5876 5876 5876 5876 5876 5877 5877 5877 5877 5877 5877 5877 5877 5877 5878 5878 5879 5880 5880 5881 5882 5884 5885 5887 5889 5890
5846 5848 5851 5853 5856 5858 5861 5863 5865 5867 5869 5871 5872 5874 5874 5875 5875 5875 5875 5875 5875 5875 5876 5876 5876 5876 5876 5876 5876 5876 5876 5876 5877 5877 5878 5879 5879 5880 5882 5884 5885 5887 5888
5843 5845 5848 5851 5854 5856 5859 5861 5863 5865 5867 5869 5871 5872 5873 5873 5874 5874 5874 5874 5874 5875 5875 5875 5875 5875 5875 5875 5875 5875 5875 5875 5875 5876 5876 5877 5878 5879 5880 5882 5883 5885 5886
5841 5843 5846 5849 5852 5855 5857 5859 5862 5864 5866 5868 5869 5871 5871 5872 5872 5873 5873 5873 5874 5874 5874 5874 5874 5874 5874 5874 5874 5874 5874 5874 5874 5874 5875 5876 5876 5877 5878 5880 5882 5883 5885
5840 5842 5844 5847 5850 5852 5855 5858 5860 5862 5864 5866 5868 5869 5870 5870 5871 5872 5872 5872 5873 5873 5873 5873 5873 5873 5873 5873 5873 5873 5873 5873 5873 5874 5874 5874 5875 5876 5877 5878 5880 5881 5883
5838 5840 5842 5845 5848 5850 5853 5855 5858 5860 5862 5864 5866 5867 5868 5869 5870 5871 5872 5872 5872 5872 5872 5872 5873 5873 5873 5873 5872 5872 5872 5872 5872 5873 5873 5873 5874 5875 5876 5877 5878 5879 5881
5836 5838 5841 5843 5846 5848 5851 5853 5856 5858 5861 5863 5865 5866 5867 5869 5870 5871 5871 5871 5871 5872 5872 5872 5872 5872 5872 5872 5872 5871 5871 5871 5871 5872 5872 5872 5873 5873 5874 5875 5876 5878 5879
5834 5836 5838 5841 5844 5846 5849 5851 5854 5857 5859 5861 5863 5864 5866 5868 5869 5870 5871 5871 5871 5871 5872 5872 5872 5872 5872 5872 5872 5871 5871 5871 5871 5871 5871 5871 5872 5872 5873 5874 5875 5876 5877
5831 5834 5836 5839 5841 5844 5847 5850 5853 5855 5858 5860 5862 5863 5865 5866 5868 5869 5870 5870 5871 5871 5872 5872 5872 5872 5872 5872 5872 5872 5871 5871 5871 5871 5871 5871 5871 5872 5872 5873 5874 5874 5875
5829 5832 5835 5837 5839 5842 5845 5848 5851 5854 5856 5858 5860 5862 5864 5865 5867 5868 5869 5870 5870 5871 5872 5872 5872 5872 5872 5872 5873 5872 5872 5871 5871 5871 5871 5871 5871 5872 5872 5872 5873 5873 5874
5828 5829 5832 5835 5837 5840 5843 5846 5849 5852 5854 5857 5859 5861 5863 5864 5866 5867 5868 5869 5870 5871 5871 5872 5872 5872 5872 5872 5873 5873 5872 5873 5872 5872 5871 5871 5871 5871 5871 5872 5872 5872 5873
5826 5828 5830 5832 5835 5838 5841 5845 5848 5850 5852 5855 5857 5859 5861 5863 5865 5866 5867 5868 5870 5870 5871 5872 5872 5873 5873 5873 5873 5873 5873 5873 5872 5872 5872 5872 5871 5871 5871 5871 5871 5871 5872
5825 5827 5828 5831 5834 5837 5840 5843 5845 5848 5851 5854 5856 5858 5860 5861 5863 5865 5866 5867 5869 5870 5871 5871 5872 5872 5873 5873 5873 5873 5873 5873 5873 5873 5872 5872 5871 5871 5871 5871 5871 5870 5870
5825 5826 5828 5830 5833 5836 5838 5841 5844 5847 5850 5852 5854 5856 5858 5860 5862 5864 5865 5866 5868 5869 5870 5870 5871 5872 5872 5873 5873 5872 5873 5873 5872 5872 5872 5872 5871 5870 5870 5870 5869 5869 5869
5825 5826 5827 5829 5832 5834 5836 5839 5843 5845 5848 5850 5852 5854 5856 5858 5860 5862 5864 5865 5866 5867 5868 5869 5870 5871 5871 5872 5872 5872 5872 5872 5871 5871 5871 5870 5870 5870 5869 5868 5868 5868 5867